Weather observations for the past three days for
Sacramento Executive Airport
| Date | Time (pdt) | Wind (mph) | Vis. (mi.) | Weather | Sky Cond. | Temperature (ºF) | Relative Humidity | Wind Chill (°F) | Heat Index (°F) | Pressure | Precipitation (in) | ||||||
|---|---|---|---|---|---|---|---|---|---|---|---|---|---|---|---|---|---|
| Air | Dwpt | 6 hour | altimeter (in) | sea level (mb) | 1 hr | 3 hr | 6 hr | ||||||||||
| Max. | Min. | ||||||||||||||||
| 05 | 22:53 | SW 8 G 17 | 10.00 | Overcast | OVC048 | 59 | 51.1 | 66 | 59 | 75% | 30.04 | 1017.2 | |||||
| 05 | 21:53 | SW 8 | 10.00 | Overcast | OVC049 | 60.1 | 52 | 75% | 30.03 | 1016.7 | |||||||
| 05 | 20:53 | SW 8 | 10.00 | Mostly Cloudy | BKN050 | 60.1 | 52 | 75% | 30.01 | 1016.1 | |||||||
| 05 | 19:53 | SW 9 | 10.00 | Overcast | OVC050 | 63 | 53.1 | 70% | 29.99 | 1015.4 | |||||||
| 05 | 18:53 | S 6 | 10.00 | Overcast | OVC045 | 64 | 53.1 | 68% | 29.97 | 1014.9 | |||||||
| 05 | 17:53 | S 7 | 10.00 | Overcast | BKN036 OVC048 | 66 | 53.1 | 63% | 29.96 | 1014.5 | |||||||
| 05 | 16:53 | SE 7 | 10.00 | Overcast | OVC031 | 64.9 | 53.1 | 68 | 62.1 | 66% | 29.96 | 1014.4 | |||||
| 05 | 15:53 | Calm | 10.00 | Overcast | OVC041 | 66 | 51.1 | 59% | 29.96 | 1014.5 | |||||||
| 05 | 14:53 | Calm | 10.00 | Overcast | OVC040 | 68 | 53.1 | 59% | 29.97 | 1014.9 | |||||||
| 05 | 13:53 | SE 5 | 10.00 | Overcast | OVC036 | 64 | 52 | 65% | 29.98 | 1015.1 | |||||||
| 05 | 12:53 | S 5 | 10.00 | Overcast | FEW030 OVC036 | 64 | 51.1 | 63% | 29.99 | 1015.4 | |||||||
| 05 | 11:53 | Calm | 10.00 | Overcast | BKN023 OVC029 | 61 | 51.1 | 70% | 29.99 | 1015.4 | |||||||
| 05 | 10:53 | Calm | 10.00 | Overcast | OVC019 | 61 | 53.1 | 61 | 53.1 | 75% | 29.98 | 1015.2 | |||||
| 05 | 09:53 | SE 5 | 10.00 | Overcast | OVC012 | 57.9 | 53.1 | 84% | 29.98 | 1015.1 | |||||||
| 05 | 08:53 | SE 6 | 10.00 | Overcast | OVC010 | 55.9 | 53.1 | 90% | 29.97 | 1014.9 | |||||||
| 05 | 07:53 | SE 6 | 10.00 | Overcast | OVC010 | 54 | 52 | 93% | 29.96 | 1014.5 | |||||||
| 05 | 06:53 | SE 5 | 10.00 | Overcast | OVC009 | 53.1 | 52 | 96% | 29.95 | 1014.1 | |||||||
| 05 | 05:53 | S 3 | 10.00 | Overcast | OVC010 | 53.1 | 52 | 96% | 29.94 | 1013.7 | |||||||
| 05 | 04:53 | SE 5 | 10.00 | Overcast | OVC009 | 53.1 | 52 | 54 | 53.1 | 96% | 29.94 | 1013.8 | 0.13 | ||||
| 05 | 03:53 | SE 6 | 10.00 | Overcast | OVC007 | 53.1 | 52 | 96% | 29.95 | 1014.0 | |||||||
| 05 | 02:53 | S 6 | 10.00 | Overcast | OVC006 | 53.1 | 52 | 96% | 29.95 | 1014.3 | |||||||
| 05 | 01:53 | SE 5 | 10.00 | Overcast | BKN008 OVC055 | 53.1 | 52 | 96% | 29.97 | 1014.6 | 0.01 | 0.13 | |||||
| 05 | 00:53 | S 3 | 10.00 | Light Rain | FEW006 OVC060 | 53.1 | 52 | 96% | 29.97 | 1014.9 | 0.03 | ||||||
| 04 | 23:53 | Calm | 10.00 | Light Rain | FEW060 BKN080 OVC095 | 53.1 | 52 | 96% | 29.97 | 1015.0 | 0.09 | ||||||
| 04 | 22:53 | Calm | 10.00 | Light Rain | OVC080 | 54 | 53.1 | 57.9 | 54 | 97% | 29.98 | 1015.0 | 0.03 | 0.4 | |||
| 04 | 21:53 | S 3 | 9.00 | Rain | BKN070 OVC085 | 54 | 53.1 | 97% | 29.96 | 1014.6 | 0.2 | ||||||
| 04 | 20:53 | Calm | 10.00 | Light Rain | OVC080 | 55 | 53.1 | 93% | 29.98 | 1015.1 | 0.1 | ||||||
| 04 | 19:53 | Calm | 10.00 | Light Rain | OVC085 | 55.9 | 53.1 | 90% | 29.96 | 1014.5 | 0.04 | 0.07 | |||||
| 04 | 18:53 | S 3 | 10.00 | Light Rain | OVC090 | 57 | 53.1 | 87% | 29.95 | 1014.1 | 0.01 | ||||||
| 04 | 17:53 | E 6 | 10.00 | Light Rain | OVC095 | 57 | 54 | 90% | 29.96 | 1014.6 | 0.02 | ||||||
| 04 | 16:53 | E 7 | 10.00 | Light Rain | OVC090 | 57.9 | 55 | 64 | 57.9 | 90% | 29.96 | 1014.4 | 0.01 | 0.02 | |||
| 04 | 15:53 | E 3 | 10.00 | Light Rain | FEW070 OVC085 | 61 | 50 | 67% | 29.96 | 1014.5 | 0.01 | ||||||
| 04 | 14:53 | SE 3 | 10.00 | Overcast | FEW060 SCT075 OVC090 | 62.1 | 46.9 | 58% | 29.97 | 1014.8 | |||||||
| 04 | 13:53 | SW 6 | 10.00 | Mostly Cloudy | SCT055 BKN070 | 63 | 46.9 | 56% | 29.97 | 1014.9 | |||||||
| 04 | 12:53 | SW 3 | 10.00 | Light Rain | SCT050 BKN070 OVC095 | 60.1 | 51.1 | 72% | 29.98 | 1015.2 | |||||||
| 04 | 11:53 | Vrbl 5 | 10.00 | Light Rain | OVC085 | 59 | 51.1 | 75% | 29.98 | 1015.2 | |||||||
| 04 | 10:53 | S 6 | 10.00 | Overcast | FEW060 FEW070 OVC085 | 59 | 50 | 59 | 53.1 | 72% | 29.98 | 1015.1 | |||||
| 04 | 09:53 | S 6 | 10.00 | Overcast | FEW018 OVC080 | 57.9 | 50 | 75% | 29.98 | 1015.0 | |||||||
| 04 | 08:53 | S 7 | 10.00 | Mostly Cloudy | BKN075 | 55.9 | 50 | 81% | 29.97 | 1014.7 | |||||||
| 04 | 07:53 | SW 6 | 10.00 | Overcast | OVC070 | 55 | 50 | 83% | 29.95 | 1014.3 | |||||||
| 04 | 06:53 | S 6 | 10.00 | Overcast | OVC065 | 55 | 48.9 | 80% | 29.95 | 1014.0 | |||||||
| 04 | 05:53 | S 5 | 10.00 | Overcast | OVC060 | 54 | 50 | 87% | 29.94 | 1013.9 | |||||||
| 04 | 04:53 | S 6 | 10.00 | Fair | CLR | 53.1 | 48.9 | 55.9 | 52 | 86% | 29.93 | 1013.4 | |||||
| 04 | 03:53 | S 5 | 10.00 | Fair | CLR | 53.1 | 48.9 | 86% | 29.94 | 1013.7 | |||||||
| 04 | 02:53 | SW 6 | 10.00 | Fair | CLR | 53.1 | 48.9 | 86% | 29.93 | 1013.6 | |||||||
| 04 | 01:53 | S 6 | 10.00 | A Few Clouds | FEW045 | 54 | 48 | 80% | 29.94 | 1013.8 | |||||||
| 04 | 00:53 | SW 5 | 10.00 | A Few Clouds | FEW042 | 54 | 48.9 | 83% | 29.94 | 1013.8 | |||||||
| 03 | 23:53 | SW 7 | 10.00 | Fair | CLR | 55 | 48 | 77% | 29.94 | 1013.6 | |||||||
| 03 | 22:53 | SW 7 | 10.00 | Fair | CLR | 55.9 | 48.9 | 68 | 55.9 | 77% | 29.93 | 1013.5 | |||||
| 03 | 21:53 | S 8 | 10.00 | Fair | CLR | 57 | 48.9 | 74% | 29.92 | 1013.0 | |||||||
| 03 | 20:53 | S 8 G 17 | 10.00 | Fair | CLR | 59 | 48 | 67% | 29.9 | 1012.4 | |||||||
| 03 | 19:53 | SW 8 G 17 | 10.00 | Fair | CLR | 61 | 48.9 | 65% | 29.88 | 1011.8 | |||||||
| 03 | 18:53 | SW 13 G 21 | 10.00 | Fair | CLR | 64 | 48.9 | 58% | 29.87 | 1011.4 | |||||||
| 03 | 17:53 | SW 14 | 10.00 | Fair | CLR | 66 | 48 | 52% | 29.86 | 1011.1 | |||||||
| 03 | 16:53 | SW 13 G 22 | 10.00 | Fair | CLR | 66.9 | 48 | 68 | 61 | 51% | 29.87 | 1011.4 | |||||
| 03 | 15:53 | SW 14 G 24 | 10.00 | Fair | CLR | 68 | 48 | 49% | 29.86 | 1011.1 | |||||||
| 03 | 14:53 | SW 9 G 25 | 10.00 | Fair | CLR | 66.9 | 48 | 51% | 29.87 | 1011.4 | |||||||
| 03 | 13:53 | SW 15 G 22 | 10.00 | Fair | CLR | 64.9 | 48 | 54% | 29.88 | 1011.9 | |||||||
| 03 | 12:53 | SW 12 G 23 | 10.00 | Fair | CLR | 66.9 | 48.9 | 53% | 29.89 | 1012.0 | |||||||
| 03 | 11:53 | SW 15 G 25 | 10.00 | Fair | CLR | 64 | 46.9 | 54% | 29.9 | 1012.4 | |||||||
| 03 | 10:53 | S 13 G 22 | 10.00 | Fair | CLR | 62.1 | 48 | 62.1 | 53.1 | 60% | 29.9 | 1012.4 | |||||
| 03 | 09:53 | S 10 G 22 | 10.00 | Fair | CLR | 60.1 | 48.9 | 67% | 29.89 | 1012.0 | |||||||
| 03 | 08:53 | S 12 G 26 | 10.00 | Fair | CLR | 57.9 | 48 | 70% | 29.88 | 1011.6 | |||||||
| 03 | 07:53 | SW 14 G 20 | 10.00 | Fair | CLR | 55 | 48 | 77% | 29.86 | 1011.1 | |||||||
| 03 | 06:53 | SW 7 | 10.00 | Fair | CLR | 54 | 48 | 80% | 29.83 | 1010.1 | |||||||
| 03 | 05:53 | SW 8 | 10.00 | Fair | CLR | 53.1 | 48 | 83% | 29.81 | 1009.4 | |||||||
| 03 | 04:53 | SW 6 | 10.00 | Fair | CLR | 53.1 | 48 | 55 | 53.1 | 83% | 29.81 | 1009.3 | |||||
| 03 | 03:53 | S 8 | 10.00 | A Few Clouds | FEW120 | 54 | 48 | 80% | 29.81 | 1009.4 | |||||||
| 03 | 02:53 | S 6 | 10.00 | A Few Clouds | FEW120 | 54 | 48 | 80% | 29.81 | 1009.3 | |||||||
| 03 | 01:53 | S 6 | 10.00 | Fair | CLR | 53.1 | 48 | 83% | 29.82 | 1009.9 | |||||||
| 03 | 00:53 | S 7 | 10.00 | Fair | CLR | 54 | 48 | 80% | 29.84 | 1010.3 | |||||||
| 02 | 23:53 | S 8 | 10.00 | Fair | CLR | 54 | 48 | 80% | 29.85 | 1010.7 | |||||||
| Date | Time (pdt) | Wind (mph) | Vis. (mi.) | Weather | Sky Cond. | Air | Dwpt | Max. | Min. | Relative Humidity | Wind Chill (°F) | Heat Index (°F) | altimeter (in) | sea level (mb) | 1 hr | 3 hr | 6 hr |
| 6 hour | |||||||||||||||||
| Temperature (ºF) | Pressure | Precipitation (in) | |||||||||||||||